Location: Newark
(46.3833°N, 6.2000°E)
Time: 23:56:57
(UTC+00:00)

N. Korean satellite - Pass Details

Date: 03 March 2020
Orbit: 455 x 506 km, 97.2° (Epoch: 28 March)

Event Time Altitude Azimuth Distance (km) Brightness Sun altitude
Rises 05:05:43 0° 17° (NNE) 2,612 10.5 -11.9°
Reaches altitude 10° 05:07:53 10° 23° (NNE) 1,717 9.7 -11.6°
Maximum altitude 05:11:29 48° 99° (E) 653 7.7 -10.9°
Drops below altitude 10° 05:14:59 10° 175° (S) 1,677 9.3 -10.3°
Sets 05:17:04 0° 181° (S) 2,544 10.2 -10.0°
